WAU3105 URSS-UKBB

Flight info

Callsign WAU3105
Flight time N/A
Altitude 30000
Route LA1C LA B549 DV/K0832F380 DCT ANAKA DCT IPRUS DCT TADID P987 NIKIG DCT CY
Aircraft A20N/M-SDE2E3FGHIRWXY/LB1

Departure

Time 2026-05-07 08:30
Airport Sochi International Airport (URSS)

Arrival

Time N/A
Airport Boryspil International Airport (UKBB)
Time Latitude Longitude Altitude Speed Heading
2026-05-07 08:13 43.44727 39.94112 61 ft 0 kts 335°
2026-05-07 08:19 43.44720 39.94116 61 ft 2 kts 335°
2026-05-07 08:19 43.44707 39.94124 60 ft 2 kts 335°
2026-05-07 08:19 43.44693 39.94133 59 ft 2 kts 335°
2026-05-07 08:20 43.44680 39.94141 59 ft 2 kts 335°
2026-05-07 08:20 43.44668 39.94149 58 ft 1 kts 334°
2026-05-07 08:20 43.44662 39.94150 58 ft 0 kts 33°
2026-05-07 08:20 43.44659 39.94146 57 ft 1 kts 75°
2026-05-07 08:21 43.44657 39.94138 57 ft 0 kts 66°
2026-05-07 08:23 43.44663 39.94156 58 ft 3 kts 65°
2026-05-07 08:23 43.44673 39.94188 60 ft 3 kts 66°
2026-05-07 08:23 43.44685 39.94226 61 ft 5 kts 66°
2026-05-07 08:23 43.44706 39.94287 63 ft 8 kts 65°
2026-05-07 08:24 43.44745 39.94403 58 ft 16 kts 65°
2026-05-07 08:24 43.44787 39.94532 52 ft 10 kts 65°
2026-05-07 08:24 43.44822 39.94639 51 ft 11 kts 66°
2026-05-07 08:24 43.44857 39.94745 52 ft 11 kts 66°
2026-05-07 08:25 43.44888 39.94843 54 ft 10 kts 66°
2026-05-07 08:25 43.44920 39.94942 54 ft 11 kts 66°
2026-05-07 08:25 43.44947 39.95050 55 ft 10 kts 88°
2026-05-07 08:25 43.44951 39.95137 59 ft 6 kts 70°
2026-05-07 08:26 43.44966 39.95182 62 ft 7 kts 61°
2026-05-07 08:26 43.45009 39.95293 69 ft 17 kts 63°
2026-05-07 08:26 43.45050 39.95420 72 ft 11 kts 70°
2026-05-07 08:27 43.45062 39.95482 72 ft 13 kts 98°
2026-05-07 08:27 43.45007 39.95518 71 ft 8 kts 163°
2026-05-07 08:27 43.44944 39.95477 71 ft 11 kts 231°
2026-05-07 08:27 43.44930 39.95446 70 ft 0 kts 244°
2026-05-07 08:29 43.44929 39.95444 70 ft 0 kts 244°
2026-05-07 08:29 43.44888 39.95324 69 ft 46 kts 243°
2026-05-07 08:29 43.44617 39.94516 51 ft 123 kts 245°
2026-05-07 08:30 43.44133 39.93127 262 ft 162 kts 243°
2026-05-07 08:30 43.43589 39.91569 870 ft 170 kts 243°
2026-05-07 08:30 43.43003 39.89894 1598 ft 178 kts 243°
2026-05-07 08:30 43.42596 39.88157 2470 ft 175 kts 260°
2026-05-07 08:31 43.42474 39.86427 3228 ft 175 kts 264°
2026-05-07 08:31 43.42350 39.84718 3901 ft 175 kts 261°
2026-05-07 08:31 43.42173 39.83068 4504 ft 177 kts 259°
2026-05-07 08:31 43.41948 39.81392 5113 ft 178 kts 257°
2026-05-07 08:32 43.41697 39.79731 5713 ft 180 kts 256°
2026-05-07 08:32 43.41427 39.78053 6312 ft 182 kts 256°
2026-05-07 08:32 43.41146 39.76358 6910 ft 183 kts 255°
2026-05-07 08:32 43.40859 39.74651 7504 ft 185 kts 255°
2026-05-07 08:33 43.40566 39.72928 8094 ft 187 kts 255°
2026-05-07 08:33 43.40234 39.70978 8748 ft 189 kts 255°
2026-05-07 08:33 43.39915 39.69124 9357 ft 190 kts 255°
2026-05-07 08:33 43.39602 39.67307 9941 ft 192 kts 255°
2026-05-07 08:34 43.39297 39.65376 10541 ft 195 kts 263°
2026-05-07 08:34 43.39492 39.63464 11081 ft 201 kts 291°
2026-05-07 08:34 43.40396 39.61821 11630 ft 207 kts 322°
2026-05-07 08:34 43.41769 39.60830 12036 ft 220 kts 336°
2026-05-07 08:35 43.43330 39.60009 12457 ft 231 kts 338°
2026-05-07 08:35 43.45041 39.59133 12727 ft 253 kts 338°
2026-05-07 08:35 43.46762 39.58235 13077 ft 270 kts 337°
2026-05-07 08:35 43.48663 39.57223 13426 ft 288 kts 337°
2026-05-07 08:36 43.50713 39.56119 13770 ft 307 kts 337°
2026-05-07 08:36 43.52800 39.54986 14091 ft 324 kts 336°
2026-05-07 08:36 43.54971 39.53803 14397 ft 341 kts 336°
2026-05-07 08:36 43.57301 39.52530 14698 ft 358 kts 336°
2026-05-07 08:37 43.59214 39.51483 14924 ft 371 kts 336°
2026-05-07 08:37 43.61692 39.50124 15270 ft 384 kts 336°
2026-05-07 08:37 43.64217 39.48737 15848 ft 389 kts 336°
2026-05-07 08:37 43.66712 39.47365 16467 ft 392 kts 336°
2026-05-07 08:38 43.69270 39.45956 17056 ft 396 kts 335°
2026-05-07 08:38 43.71849 39.44532 17625 ft 400 kts 335°
2026-05-07 08:38 43.74416 39.43112 18178 ft 403 kts 335°
2026-05-07 08:38 43.77086 39.41632 18736 ft 407 kts 335°
2026-05-07 08:39 43.79858 39.40092 19296 ft 411 kts 335°
2026-05-07 08:39 43.82517 39.38614 19823 ft 414 kts 334°
2026-05-07 08:39 43.85390 39.37018 20381 ft 417 kts 334°
2026-05-07 08:39 43.88129 39.35475 20898 ft 419 kts 332°
2026-05-07 08:40 43.90839 39.33460 21431 ft 417 kts 322°
2026-05-07 08:40 43.93419 39.30710 21989 ft 414 kts 312°
2026-05-07 08:40 43.95623 39.27787 22555 ft 415 kts 309°
2026-05-07 08:40 43.97792 39.24792 23119 ft 416 kts 309°
2026-05-07 08:41 43.99921 39.21851 23647 ft 418 kts 309°
2026-05-07 08:41 44.02080 39.18887 24162 ft 421 kts 309°
2026-05-07 08:41 44.04340 39.15800 24670 ft 423 kts 309°
2026-05-07 08:41 44.06534 39.12809 25140 ft 426 kts 309°
2026-05-07 08:42 44.08731 39.09814 25602 ft 428 kts 309°
2026-05-07 08:42 44.10921 39.06830 26087 ft 428 kts 309°
2026-05-07 08:42 44.13093 39.03711 26589 ft 426 kts 306°
2026-05-07 08:42 44.15128 39.00431 27056 ft 424 kts 303°
2026-05-07 08:43 44.17073 38.96920 27480 ft 423 kts 301°
2026-05-07 08:43 44.18973 38.93358 27899 ft 424 kts 301°
2026-05-07 08:43 44.20771 38.89962 28291 ft 424 kts 301°
2026-05-07 08:43 44.22654 38.86402 28791 ft 422 kts 301°
2026-05-07 08:44 44.24478 38.82954 29277 ft 419 kts 301°
2026-05-07 08:44 44.26303 38.79503 29742 ft 417 kts 301°
2026-05-07 08:44 44.28053 38.76186 30154 ft 415 kts 301°
2026-05-07 08:44 44.29847 38.72784 30552 ft 414 kts 301°
2026-05-07 08:45 44.31687 38.69291 30933 ft 412 kts 301°
2026-05-07 08:45 44.33477 38.65878 31298 ft 411 kts 301°
2026-05-07 08:45 44.35231 38.62522 31646 ft 410 kts 300°
2026-05-07 08:45 44.37023 38.59082 31984 ft 409 kts 300°
2026-05-07 08:46 44.38776 38.55708 32303 ft 408 kts 300°
2026-05-07 08:46 44.40517 38.52355 32657 ft 406 kts 300°
2026-05-07 08:46 44.42245 38.49023 32974 ft 404 kts 300°
2026-05-07 08:46 44.43921 38.45780 33275 ft 403 kts 303°
2026-05-07 08:47 44.45623 38.42400 33409 ft 408 kts 306°
2026-05-07 08:47 44.47350 38.39056 33527 ft 413 kts 306°
2026-05-07 08:47 44.49066 38.35754 33639 ft 417 kts 306°
2026-05-07 08:47 44.50806 38.32393 33749 ft 422 kts 306°
2026-05-07 08:48 44.52552 38.29001 33856 ft 426 kts 306°
2026-05-07 08:48 44.54315 38.25567 33963 ft 430 kts 306°
2026-05-07 08:48 44.56095 38.22096 34064 ft 434 kts 306°
2026-05-07 08:48 44.57894 38.18588 34167 ft 438 kts 306°
2026-05-07 08:49 44.59681 38.15097 34328 ft 439 kts 306°
2026-05-07 08:49 44.61470 38.11602 34559 ft 439 kts 306°
2026-05-07 08:49 44.63277 38.08064 34809 ft 438 kts 306°
2026-05-07 08:49 44.65045 38.04600 35047 ft 438 kts 306°
2026-05-07 08:50 44.66868 38.01023 35264 ft 438 kts 306°
2026-05-07 08:50 44.68681 37.97463 35416 ft 439 kts 306°
2026-05-07 08:50 44.70486 37.93912 35540 ft 441 kts 306°
2026-05-07 08:50 44.72288 37.90364 35666 ft 442 kts 306°
2026-05-07 08:51 44.74142 37.86707 35797 ft 444 kts 306°
2026-05-07 08:51 44.75932 37.83175 35916 ft 445 kts 306°
2026-05-07 08:51 44.79539 37.76040 36006 ft 447 kts 306°
2026-05-07 08:52 44.83168 37.68845 36013 ft 447 kts 306°
2026-05-07 08:52 44.86772 37.61680 36014 ft 447 kts 306°
2026-05-07 08:53 44.90389 37.54469 36014 ft 447 kts 306°
2026-05-07 08:53 44.94009 37.47227 36014 ft 447 kts 306°
2026-05-07 08:54 44.97634 37.39972 36013 ft 447 kts 306°
2026-05-07 08:54 45.01559 37.33007 36015 ft 447 kts 311°
2026-05-07 08:55 45.05898 37.26536 36016 ft 447 kts 314°
2026-05-07 08:55 45.10314 37.20167 36015 ft 447 kts 314°
2026-05-07 08:56 45.14700 37.13863 36015 ft 447 kts 314°
2026-05-07 08:56 45.19083 37.07532 36015 ft 447 kts 314°
2026-05-07 08:57 45.23497 37.01120 36015 ft 447 kts 314°
2026-05-07 08:57 45.27885 36.94722 36015 ft 447 kts 314°
2026-05-07 08:58 45.32309 36.88254 36015 ft 447 kts 314°
2026-05-07 08:58 45.36657 36.81881 36015 ft 447 kts 314°
2026-05-07 08:59 45.41026 36.75462 36015 ft 447 kts 314°
2026-05-07 08:59 45.45394 36.69028 36015 ft 447 kts 314°
2026-05-07 09:00 45.49756 36.62589 36015 ft 447 kts 314°
2026-05-07 09:00 45.54073 36.56201 36015 ft 447 kts 314°
2026-05-07 09:01 45.58437 36.49728 36015 ft 447 kts 314°
2026-05-07 09:01 45.62782 36.43267 36015 ft 447 kts 314°
2026-05-07 09:02 45.67133 36.36782 36015 ft 447 kts 314°
2026-05-07 09:02 45.71447 36.30321 36015 ft 447 kts 313°
2026-05-07 09:03 45.75738 36.23869 36015 ft 447 kts 313°
2026-05-07 09:03 45.80048 36.17389 36015 ft 447 kts 313°
2026-05-07 09:04 45.84361 36.10894 36015 ft 447 kts 313°
2026-05-07 09:04 45.88703 36.04344 36015 ft 447 kts 313°
2026-05-07 09:05 45.93006 35.97838 36015 ft 447 kts 313°
2026-05-07 09:05 45.97343 35.91264 36015 ft 447 kts 313°
2026-05-07 09:06 46.01650 35.84719 36015 ft 447 kts 313°
2026-05-07 09:06 46.05953 35.78165 36015 ft 447 kts 313°
2026-05-07 09:07 46.10287 35.71548 36014 ft 447 kts 313°
2026-05-07 09:07 46.14600 35.64986 36015 ft 447 kts 314°
2026-05-07 09:08 46.18939 35.58356 36015 ft 447 kts 313°
2026-05-07 09:08 46.23248 35.51736 36015 ft 447 kts 313°
2026-05-07 09:09 46.27501 35.45179 36015 ft 447 kts 313°
2026-05-07 09:09 46.31776 35.38569 36015 ft 447 kts 313°
2026-05-07 09:10 46.36024 35.31977 36015 ft 447 kts 313°
2026-05-07 09:10 46.40280 35.25335 36015 ft 447 kts 313°
2026-05-07 09:11 46.44584 35.18617 36015 ft 447 kts 313°
2026-05-07 09:11 46.48870 35.11917 36015 ft 447 kts 313°
2026-05-07 09:12 46.53249 35.05347 36014 ft 447 kts 316°
2026-05-07 09:12 46.57964 34.99490 36015 ft 447 kts 322°
2026-05-07 09:13 46.63241 34.93944 36015 ft 447 kts 324°
2026-05-07 09:13 46.68579 34.88454 36015 ft 447 kts 324°
2026-05-07 09:14 46.73718 34.83142 36015 ft 447 kts 324°
2026-05-07 09:14 46.78783 34.77885 36015 ft 447 kts 324°
2026-05-07 09:15 46.83841 34.72620 36015 ft 447 kts 324°
2026-05-07 09:15 46.88811 34.67433 36015 ft 447 kts 324°
2026-05-07 09:16 46.92858 34.63201 36015 ft 447 kts 324°
2026-05-07 09:16 46.97916 34.57900 36014 ft 447 kts 324°
2026-05-07 09:17 47.03020 34.52539 36014 ft 447 kts 324°
2026-05-07 09:17 47.08363 34.46912 36014 ft 447 kts 324°
2026-05-07 09:18 47.13412 34.41596 36015 ft 447 kts 325°
2026-05-07 09:18 47.18458 34.36283 36015 ft 447 kts 324°
2026-05-07 09:19 47.23495 34.30932 36015 ft 447 kts 324°
2026-05-07 09:19 47.28499 34.25589 36015 ft 447 kts 324°
2026-05-07 09:20 47.33531 34.20217 36015 ft 447 kts 324°
2026-05-07 09:20 47.38543 34.14858 36015 ft 447 kts 324°
2026-05-07 09:21 47.43588 34.09453 36015 ft 447 kts 324°
2026-05-07 09:21 47.48602 34.04065 36015 ft 447 kts 324°
2026-05-07 09:22 47.53621 33.98657 36015 ft 447 kts 324°
2026-05-07 09:22 47.58629 33.93250 36015 ft 447 kts 324°
2026-05-07 09:23 47.63695 33.87889 36015 ft 447 kts 325°
2026-05-07 09:23 47.68747 33.82604 36015 ft 447 kts 325°
2026-05-07 09:24 47.73840 33.77246 36015 ft 447 kts 324°
2026-05-07 09:24 47.78887 33.71914 36015 ft 447 kts 324°
2026-05-07 09:25 47.83924 33.66573 36015 ft 447 kts 324°
2026-05-07 09:25 47.88985 33.61192 36015 ft 447 kts 324°
2026-05-07 09:26 47.94034 33.55822 36014 ft 447 kts 325°
2026-05-07 09:26 47.99079 33.50454 36014 ft 447 kts 325°
2026-05-07 09:27 48.04145 33.45043 36014 ft 447 kts 324°
2026-05-07 09:28 48.11721 33.36924 36015 ft 447 kts 325°
2026-05-07 09:28 48.16808 33.31469 36015 ft 447 kts 324°
2026-05-07 09:29 48.21852 33.26015 36015 ft 447 kts 324°
2026-05-07 09:29 48.26886 33.20565 36015 ft 447 kts 324°
2026-05-07 09:30 48.31931 33.15093 36015 ft 447 kts 324°
2026-05-07 09:30 48.36990 33.09590 36015 ft 447 kts 324°
2026-05-07 09:31 48.42091 33.04026 36015 ft 447 kts 324°
2026-05-07 09:31 48.47149 32.98498 36015 ft 447 kts 324°
2026-05-07 09:32 48.52225 32.92873 36015 ft 447 kts 323°
2026-05-07 09:32 48.57200 32.87312 36015 ft 447 kts 323°
2026-05-07 09:33 48.62223 32.81681 35992 ft 448 kts 323°
2026-05-07 09:33 48.64698 32.78903 35734 ft 447 kts 323°
2026-05-07 09:33 48.67211 32.76081 35480 ft 445 kts 323°
2026-05-07 09:33 48.69696 32.73398 35231 ft 442 kts 326°
2026-05-07 09:34 48.72247 32.70804 34979 ft 440 kts 327°
2026-05-07 09:34 48.74782 32.68261 34730 ft 439 kts 327°
2026-05-07 09:34 48.77312 32.65723 34481 ft 439 kts 327°
2026-05-07 09:34 48.79861 32.63159 34231 ft 439 kts 327°
2026-05-07 09:35 48.82401 32.60596 33980 ft 440 kts 327°
2026-05-07 09:35 48.84959 32.58011 33643 ft 440 kts 327°
2026-05-07 09:35 48.87697 32.55237 33137 ft 442 kts 327°
2026-05-07 09:35 48.90259 32.52638 32547 ft 442 kts 327°
2026-05-07 09:36 48.92961 32.49891 31857 ft 443 kts 327°
2026-05-07 09:36 48.95582 32.47224 31157 ft 444 kts 327°
2026-05-07 09:36 48.98138 32.44620 30457 ft 446 kts 327°
2026-05-07 09:36 49.00993 32.41707 29653 ft 447 kts 327°
2026-05-07 09:37 49.03701 32.38940 28877 ft 449 kts 327°
2026-05-07 09:37 49.06398 32.36180 28086 ft 451 kts 327°
2026-05-07 09:37 49.09025 32.33485 27347 ft 451 kts 326°
2026-05-07 09:37 49.11621 32.30811 26868 ft 445 kts 326°
2026-05-07 09:38 49.14243 32.28120 26366 ft 440 kts 326°
2026-05-07 09:38 49.16861 32.25431 25854 ft 435 kts 326°
2026-05-07 09:38 49.19405 32.22813 25349 ft 431 kts 326°
2026-05-07 09:38 49.22014 32.20124 24827 ft 427 kts 326°
2026-05-07 09:39 49.24520 32.17536 24324 ft 423 kts 326°
2026-05-07 09:39 49.27002 32.14968 23822 ft 420 kts 326°
2026-05-07 09:39 49.29494 32.12387 23314 ft 416 kts 326°
2026-05-07 09:39 49.31898 32.09893 22825 ft 412 kts 326°
2026-05-07 09:40 49.34295 32.07402 22332 ft 409 kts 326°
2026-05-07 09:40 49.36636 32.04968 21845 ft 406 kts 326°
2026-05-07 09:40 49.38980 32.02528 21351 ft 403 kts 326°
2026-05-07 09:40 49.41391 32.00045 20846 ft 400 kts 327°
2026-05-07 09:41 49.43794 31.97777 20357 ft 397 kts 329°
2026-05-07 09:41 49.46148 31.95625 19878 ft 394 kts 329°
2026-05-07 09:41 49.48515 31.93469 19394 ft 391 kts 329°
2026-05-07 09:41 49.50843 31.91343 18918 ft 389 kts 329°
2026-05-07 09:42 49.53171 31.89213 18438 ft 386 kts 329°
2026-05-07 09:42 49.55496 31.87081 17957 ft 383 kts 329°
2026-05-07 09:42 49.57757 31.85002 17489 ft 381 kts 329°
2026-05-07 09:42 49.60032 31.82909 17014 ft 378 kts 329°
2026-05-07 09:43 49.62306 31.80813 16539 ft 376 kts 329°
2026-05-07 09:43 49.64562 31.78731 16066 ft 373 kts 329°
2026-05-07 09:43 49.66795 31.76668 15595 ft 371 kts 329°
2026-05-07 09:43 49.69004 31.74626 15128 ft 369 kts 329°
2026-05-07 09:44 49.71183 31.72608 14665 ft 366 kts 329°
2026-05-07 09:44 49.73360 31.70589 14204 ft 364 kts 329°
2026-05-07 09:44 49.75521 31.68584 13743 ft 362 kts 329°
2026-05-07 09:44 49.77655 31.66601 13287 ft 359 kts 329°
2026-05-07 09:45 49.79800 31.64607 12827 ft 357 kts 329°
2026-05-07 09:45 49.81927 31.62627 12373 ft 354 kts 329°
2026-05-07 09:45 49.84061 31.60637 11912 ft 352 kts 329°
2026-05-07 09:45 49.86132 31.58705 11466 ft 350 kts 329°
2026-05-07 09:46 49.88221 31.56754 11015 ft 348 kts 329°
2026-05-07 09:46 49.90264 31.54845 10573 ft 345 kts 329°
2026-05-07 09:46 49.92303 31.52935 10263 ft 338 kts 329°
2026-05-07 09:46 49.94291 31.51072 10182 ft 323 kts 329°
2026-05-07 09:47 49.96146 31.49331 10099 ft 309 kts 329°
2026-05-07 09:47 49.97948 31.47638 10025 ft 295 kts 329°
2026-05-07 09:47 49.99672 31.46017 9955 ft 282 kts 329°
2026-05-07 09:47 50.01348 31.44442 9623 ft 281 kts 329°
2026-05-07 09:48 50.03012 31.42876 9303 ft 279 kts 329°
2026-05-07 09:48 50.04658 31.41324 8993 ft 277 kts 328°
2026-05-07 09:48 50.06063 31.39336 8644 ft 275 kts 303°
2026-05-07 09:48 50.06727 31.36543 8318 ft 272 kts 275°
2026-05-07 09:49 50.06739 31.34542 8125 ft 270 kts 267°